Regional Weather Roundup
Issued by NWS Charleston, SC

Current Version | Previous Version | Text Only | Print | Product List | Glossary Off
Versions: 1 2 3 4 5 6 7 8 9 10 11 12 13 14 15 16 17 18 19 20 21 22 23 24 25 26 27 28 29 30 31 32 33 34 35 36 37 38 39 40 41 42 43 44 45 46 47 48 49 50

000
ASUS42 KCHS 282211
RWRCHS

REGIONAL WEATHER ROUNDUP
NATIONAL WEATHER SERVICE CHARLESTON SC
600 PM EDT SAT MAR 28 2015

NOTE: "FAIR" INDICATES FEW OR NO CLOUDS BELOW 12,000 FEET WITH NO
SIGNIFICANT WEATHER AND/OR OBSTRUCTIONS TO VISIBILITY.

NOT ALL STATIONS ARE QUALITY CONTROLLED BY THE NATIONAL
WEATHER SERVICE. USE DATA WITH CAUTION...ESPECIALLY
DEWPOINT OBSERVATIONS.

SCZ027-030-031-034>040-042>050-282300-
...SOUTHEAST SOUTH CAROLINA...

CITY           SKY/WX    TMP DP  RH WIND       PRES   REMARKS
N CHARLESTON   MOSUNNY   57  23  26 W9        30.07R
WATERFRONT PRK   N/A     57 N/A N/A W8G18       N/A
MOUNT PLEASANT FAIR      57  28  33 NW13G20   30.06R
PINOPOLIS        N/A     57  30  35 NW8       29.96F
MONCKS CORNER  FAIR      55  27  33 NW5       30.06R
SUMMERVILLE    FAIR      55  28  35 W9G17     30.08R
BEAUFORT MCAS  MOSUNNY   58  23  26 W9        30.08R
BEAUFORT ARPT  FAIR      59  30  33 W16G22    30.07R
HILTON HEAD IS SUNNY     59  25  27 NW12G17   30.09R
WALTERBORO     MOCLDY    55  23  28 W12       30.08R
ALLENDALE      FAIR      57  19  23 VRB5G17   30.07R

...SOUTHERN MIDLANDS AND PEE DEE...

CITY           SKY/WX    TMP DP  RH WIND       PRES   REMARKS
GEORGETOWN     NOT AVBL
KINGSTREE      NOT AVBL
ORANGEBURG     SUNNY     55  20  25 NW9       30.08R
BARNWELL       FAIR      57  21  24 W8        30.08R
AIKEN          FAIR      54  16  22 W15G21    30.11R
MANNING        FAIR     N/A N/A N/A NW10G16   30.07R
COLUMBIA       MOSUNNY   55  16  21 NW12      30.08R
SUMTER         MOSUNNY   54  14  20 NW16G22   30.05R
FLORENCE       MOSUNNY   54  19  25 NW14G23   30.05R
MYRTLE BEACH   PTSUNNY   55  27  33 NW12      30.06R
N MYRTLE BEACH PTSUNNY   54  27  35 NW8       30.04R

$$

GAZ063-065-086>088-099>101-113>116-118-119-134>141-150-282300-
...SOUTHEAST GEORGIA...

CITY           SKY/WX    TMP DP  RH WIND       PRES   REMARKS
SAVANNAH ARPT  MOSUNNY   59  21  23 W17G23    30.08R
HUNTER AAF     SUNNY     59  27  29 W12       30.06R
FORT STEWART   SUNNY     59  26  27 NW13      30.07R
STATESBORO     SUNNY     58  24  27 W15       30.10R
SYLVANIA       CLEAR     57  25  29 NW12      30.09R
CLAXTON        FAIR      57  30  35 W12G17    30.10R

...CSRA...CENTRAL AND FAR SOUTHEAST GEORGIA...

CITY           SKY/WX    TMP DP  RH WIND       PRES   REMARKS
THOMSON        SUNNY     57  25  29 W3G20     30.13S
AUGUSTA-BUSH   SUNNY     57  19  22 W15G22    30.08R
AUGUSTA-DANIEL SUNNY     57  16  20 NW10G20   30.09R
SWAINSBORO     FAIR      59 -33   2 W9G20     30.11R
VIDALIA        SUNNY     59  27  29 NW9G16    30.11R
EASTMAN        FAIR      58  22  24 NW8G17    30.15R
HAZLEHURST     FAIR      57  23  26 W9G20     30.11R
ALMA           SUNNY     58  26  29 W14G23    30.12R
WAYCROSS       SUNNY     61  29  30 NW13G21   30.12R
JESUP          FAIR      61  32  33 W15G23    30.11R
BAXLEY         FAIR      59  28  31 W14       30.11S
BRUNSWICK      SUNNY     61  27  27 W13G24    30.11R
SAINT SIMONS   SUNNY     60  26  27 W14G21    30.10R

$$

SCZ027-028-034-036>038-045-046-048>050-GAZ119-141-282300-
...LAKE AND SUPPLEMENTAL COASTAL OBSERVATIONS...

STATION/POSITION TIME  TEMP    WIND        PRES    WAVE   SWELL
                       AIR SEA DIR/SP/G            HT/PER HT/PER/DIR
                 (UTC) (F)     (DEG/KT/KT) (MB)    (FT/S) (FT/S/D)
UPR LAKE MARION  NOT AVBL
WINYAH BAY       2045   53     270/  8     1016.0
LAKE MURRAY      2100   53     310/  8/ 13 1017.3F
ACE BASIN NERRS  NOT AVBL
FORT PULASKI     2100   57 60  290/ 21/ 25 1018.5R
SAPELO ISLAND    2100   60     280/ 14     1018.0S

$$

ANZ835-935-AMZ111-154-330-350-352-354-370-450-454-472-282300-
...C-MAN AND BUOY OBSERVATIONS...

STATION/POSITION TIME  TEMP    WIND        PRES    WAVE   SWELL
                       AIR SEA DIR/SP/G            HT/PER HT/PER/DIR
                 (UTC) (F)     (DEG/KT/KT) (MB)    (FT/S) (FT/S/D)
BUOY 41004       2150   56 68  290/ 16/ 21 1017.3R   4/ 7   2/ 7
BUOY 41008       2150   57 61  280/ 16/ 19 1018.6R   3/ 4   2/ 70/ 8
FOLLY BEACH CMAN 2200   57     300/  9/ 13 1018.0R
CAPERS NEARSHORE NOT AVBL
FRIPP NEARSHORE  2100   57     290/ 14/ 16 1017.6R


STATION/POSITION TIME  TEMP    WIND        PRES    WAVE   SWELL
                       AIR SEA DIR/SP/G            HT/PER HT/PER/DIR
                 (UTC) (F)     (DEG/KT/KT) (MB)    (FT/S) (FT/S/D)
5E ST. MARYS GA  2121      61                N/A     2/ 3
FRYING PAN BUOY  2150   53 65  270/ 10/ 16 1017.7R   3/ 6   3/130/ 6
BUOY 41025       NOT AVBL
CAPE LOOKOUT NC  2200   49     300/ 10/ 13 1016.8R
BUOY 41002       2150   60 69  300/ 16/ 21 1016.0R  11/10   8/250/10
BUOY 41010       2120   63 76  300/ 16/ 21 1018.7F
ST AUGUSTINE FL  2200   63 62  310/  7/  9 1020.1R


$$


USA.gov is the U.S. government's official web portal to all federal, state and local government web resources and services.